PLA_CODE;SMP_DB_REAL;SMP_DE_REAL;SMP_D_ANALYSIS;POL_CODE;MEA_CODE;MEA_PHYSICAL_UNIT;MEA_VALUE;MEA_F_STATUS;JOB_TYPE;
"PES02t";"2014/02/21";"2014/02/21";"";"PM10";"PM10";"ug/m3";"7.98587158506033";"A";"DATA_VALIDATE_ENV";
"PES02t";"2014/02/22";"2014/02/22";"";"PM10";"PM10";"ug/m3";"5.76919866577115";"A";"DATA_VALIDATE_ENV";
"PES02t";"2014/02/23";"2014/02/23";"";"PM10";"PM10";"ug/m3";"10.1125447909672";"A";"DATA_VALIDATE_ENV";
"PES02t";"2014/02/24";"2014/02/24";"";"PM10";"PM10";"ug/m3";"29.1494336725903";"A";"DATA_VALIDATE_ENV";
"PES02t";"2014/02/25";"2014/02/25";"";"PM10";"PM10";"ug/m3";"12.0260722836543";"A";"DATA_VALIDATE_ENV";
"PES02t";"2014/02/26";"2014/02/26";"";"PM10";"PM10";"ug/m3";"16.9236160937745";"A";"DATA_VALIDATE_ENV";
"PES02t";"2014/02/27";"2014/02/27";"";"PM10";"PM10";"ug/m3";"20.2105108902659";"A";"DATA_VALIDATE_ENV";
"PES02t";"2014/02/28";"2014/02/28";"";"PM10";"PM10";"ug/m3";"7.28286482473478";"A";"DATA_VALIDATE_ENV";
"PES02t";"2014/03/01";"2014/03/01";"";"PM10";"PM10";"ug/m3";"11.8195513163319";"A";"DATA_VALIDATE_ENV";
"PES02t";"2014/03/02";"2014/03/02";"";"PM10";"PM10";"ug/m3";"15.3545749051243";"A";"DATA_VALIDATE_ENV";
"PES02t";"2014/03/03";"2014/03/03";"";"PM10";"PM10";"ug/m3";"12.5250300845584";"A";"DATA_VALIDATE_ENV";
"PES02t";"2014/03/04";"2014/03/04";"";"PM10";"PM10";"ug/m3";"48.2314612068413";"A";"DATA_VALIDATE_ENV";
"PES02t";"2014/03/05";"2014/03/05";"";"PM10";"PM10";"ug/m3";"79.3903157742172";"A";"DATA_VALIDATE_ENV";
"PES02t";"2014/03/06";"2014/03/06";"";"PM10";"PM10";"ug/m3";"131.65242136141";"A";"DATA_VALIDATE_ENV";
"PES02t";"2014/03/07";"2014/03/07";"";"PM10";"PM10";"ug/m3";"120.796305113083";"A";"DATA_VALIDATE_ENV";
"PES02t";"2014/03/08";"2014/03/08";"";"PM10";"PM10";"ug/m3";"131.561873764821";"A";"DATA_VALIDATE_ENV";
"PES02t";"2014/03/09";"2014/03/09";"";"PM10";"PM10";"ug/m3";"54.4350527385045";"A";"DATA_VALIDATE_ENV";
"PES02t";"2014/03/10";"2014/03/10";"";"PM10";"PM10";"ug/m3";"98.9751452091881";"A";"DATA_VALIDATE_ENV";
"PES02t";"2014/03/11";"2014/03/11";"";"PM10";"PM10";"ug/m3";"118.81912401145";"A";"DATA_VALIDATE_ENV";
"PES02t";"2014/03/12";"2014/03/12";"";"PM10";"PM10";"ug/m3";"142.381635828847";"A";"DATA_VALIDATE_ENV";
"PES02t";"2014/03/13";"2014/03/13";"";"PM10";"PM10";"ug/m3";"130.963178462003";"A";"DATA_VALIDATE_ENV";
"PES02t";"2014/03/14";"2014/03/14";"";"PM10";"PM10";"ug/m3";"113.214227782605";"A";"DATA_VALIDATE_ENV";
"PES02t";"2014/03/15";"2014/03/15";"";"PM10";"PM10";"ug/m3";"49.4466910404625";"A";"DATA_VALIDATE_ENV";
"PES02t";"2014/03/16";"2014/03/16";"";"PM10";"PM10";"ug/m3";"26.2833995220559";"A";"DATA_VALIDATE_ENV";
"PES02t";"2014/03/17";"2014/03/17";"";"PM10";"PM10";"ug/m3";"31.4984005029029";"A";"DATA_VALIDATE_ENV";
"PES02t";"2014/03/18";"2014/03/18";"";"PM10";"PM10";"ug/m3";"28.7539173305402";"A";"DATA_VALIDATE_ENV";
"PES02t";"2014/03/19";"2014/03/19";"";"PM10";"PM10";"ug/m3";"30.7364492348917";"A";"DATA_VALIDATE_ENV";
"PES02t";"2014/03/20";"2014/03/20";"";"PM10";"PM10";"ug/m3";"43.7057031254013";"A";"DATA_VALIDATE_ENV";
"PES02t";"2014/03/21";"2014/03/21";"";"PM10";"PM10";"ug/m3";"15.8959231516742";"A";"DATA_VALIDATE_ENV";
"PES02t";"2014/03/22";"2014/03/22";"";"PM10";"PM10";"ug/m3";"4.99728131203433";"A";"DATA_VALIDATE_ENV";
"PES02t";"2014/03/23";"2014/03/23";"";"PM10";"PM10";"ug/m3";"8.40727677043414";"A";"DATA_VALIDATE_ENV";
"PES02t";"2014/03/24";"2014/03/24";"";"PM10";"PM10";"ug/m3";"18.2114191503333";"A";"DATA_VALIDATE_ENV";
"PES02t";"2014/03/25";"2014/03/25";"";"PM10";"PM10";"ug/m3";"39.6517385658888";"A";"DATA_VALIDATE_ENV";
"PES02t";"2014/03/26";"2014/03/26";"";"PM10";"PM10";"ug/m3";"33.3574642919703";"A";"DATA_VALIDATE_ENV";
"PES02t";"2014/03/27";"2014/03/27";"";"PM10";"PM10";"ug/m3";"54.1174604221111";"A";"DATA_VALIDATE_ENV";
"PES02t";"2014/03/28";"2014/03/28";"";"PM10";"PM10";"ug/m3";"73.4354522901591";"A";"DATA_VALIDATE_ENV";
"PES02t";"2014/03/29";"2014/03/29";"";"PM10";"PM10";"ug/m3";"50.7165197233701";"A";"DATA_VALIDATE_ENV";
"PES02t";"2014/03/30";"2014/03/30";"";"PM10";"PM10";"ug/m3";"35.5704745817331";"A";"DATA_VALIDATE_ENV";
"PES02t";"2014/03/31";"2014/03/31";"";"PM10";"PM10";"ug/m3";"87.3027491348961";"A";"DATA_VALIDATE_ENV";
"PES02t";"2014/04/01";"2014/04/01";"";"PM10";"PM10";"ug/m3";"87.5929068809798";"A";"DATA_VALIDATE_ENV";
"PES02t";"2014/04/02";"2014/04/02";"";"PM10";"PM10";"ug/m3";"75.4761518550702";"A";"DATA_VALIDATE_ENV";
"PES02t";"2014/04/03";"2014/04/03";"";"PM10";"PM10";"ug/m3";"74.7867738099966";"A";"DATA_VALIDATE_ENV";
"PES02t";"2014/04/04";"2014/04/04";"";"PM10";"PM10";"ug/m3";"55.0061783253465";"A";"DATA_VALIDATE_ENV";
"PES02t";"2014/04/05";"2014/04/05";"";"PM10";"PM10";"ug/m3";"36.8038139346721";"A";"DATA_VALIDATE_ENV";
"PES02t";"2014/04/06";"2014/04/06";"";"PM10";"PM10";"ug/m3";"14.6626723517445";"A";"DATA_VALIDATE_ENV";
"PES02t";"2014/04/07";"2014/04/07";"";"PM10";"PM10";"ug/m3";"24.9954613198305";"A";"DATA_VALIDATE_ENV";
"PES02t";"2014/04/08";"2014/04/08";"";"PM10";"PM10";"ug/m3";"24.7780119423509";"A";"DATA_VALIDATE_ENV";
"PES02t";"2014/04/09";"2014/04/09";"";"PM10";"PM10";"ug/m3";"27.5712025786147";"A";"DATA_VALIDATE_ENV";
"PES02t";"2014/04/10";"2014/04/10";"";"PM10";"PM10";"ug/m3";"49.4648005597803";"A";"DATA_VALIDATE_ENV";
"PES02t";"2014/04/11";"2014/04/11";"";"PM10";"PM10";"ug/m3";"57.1286410185207";"A";"DATA_VALIDATE_ENV";
"PES02t";"2014/04/12";"2014/04/12";"";"PM10";"PM10";"ug/m3";"35.7064311222829";"A";"DATA_VALIDATE_ENV";
"PES02t";"2014/04/13";"2014/04/13";"";"PM10";"PM10";"ug/m3";"22.279451971777";"A";"DATA_VALIDATE_ENV";
"PES02t";"2014/04/14";"2014/04/14";"";"PM10";"PM10";"ug/m3";"30.6457664926364";"A";"DATA_VALIDATE_ENV";
"PES02t";"2014/04/15";"2014/04/15";"";"PM10";"PM10";"ug/m3";"30.9359242387201";"A";"DATA_VALIDATE_ENV";
"PES02t";"2014/04/16";"2014/04/16";"";"PM10";"PM10";"ug/m3";"53.627827672199";"A";"DATA_VALIDATE_ENV";
"PES02t";"2014/04/17";"2014/04/17";"";"PM10";"PM10";"ug/m3";"52.9748038114274";"A";"DATA_VALIDATE_ENV";
"PES02t";"2014/04/18";"2014/04/18";"";"PM10";"PM10";"ug/m3";"29.9201694089273";"A";"DATA_VALIDATE_ENV";
"PES02t";"2014/04/19";"2014/04/19";"";"PM10";"PM10";"ug/m3";"33.729385166317";"A";"DATA_VALIDATE_ENV";
"PES02t";"2014/04/20";"2014/04/20";"";"PM10";"PM10";"ug/m3";"32.1091107799819";"A";"DATA_VALIDATE_ENV";
"PES02t";"2014/04/21";"2014/04/21";"";"PM10";"PM10";"ug/m3";"13.3232003912051";"A";"DATA_VALIDATE_ENV";
"PES02t";"2014/04/22";"2014/04/22";"";"PM10";"PM10";"ug/m3";"17.5856947142049";"A";"DATA_VALIDATE_ENV";
"PES02t";"2014/04/23";"2014/04/23";"";"PM10";"PM10";"ug/m3";"33.0159088646021";"A";"DATA_VALIDATE_ENV";
"PES02t";"2014/04/24";"2014/04/24";"";"PM10";"PM10";"ug/m3";"38.2187890634549";"A";"DATA_VALIDATE_ENV";
"PES02t";"2014/04/25";"2014/04/25";"";"PM10";"PM10";"ug/m3";"34.999078703558";"A";"DATA_VALIDATE_ENV";
"PES02t";"2014/04/26";"2014/04/26";"";"PM10";"PM10";"ug/m3";"16.4973666614745";"A";"DATA_VALIDATE_ENV";
"PES02t";"2014/04/27";"2014/04/27";"";"PM10";"PM10";"ug/m3";"10.1124096453006";"A";"DATA_VALIDATE_ENV";
"PES02t";"2014/04/28";"2014/04/28";"";"PM10";"PM10";"ug/m3";"17.3317560067567";"A";"DATA_VALIDATE_ENV";
"PES02t";"2014/04/29";"2014/04/29";"";"PM10";"PM10";"ug/m3";"22.6736587684945";"A";"DATA_VALIDATE_ENV";
"PES02t";"2014/04/30";"2014/04/30";"";"PM10";"PM10";"ug/m3";"37.4660277007691";"A";"DATA_VALIDATE_ENV";
"PES02t";"2014/05/01";"2014/05/01";"";"PM10";"PM10";"ug/m3";"24.1201733210609";"A";"DATA_VALIDATE_ENV";
"PES02t";"2014/05/02";"2014/05/02";"";"PM10";"PM10";"ug/m3";"18.6286138229744";"A";"DATA_VALIDATE_ENV";
"PES02t";"2014/05/03";"2014/05/03";"";"PM10";"PM10";"ug/m3";"14.9375153781497";"A";"DATA_VALIDATE_ENV";
"PES02t";"2014/05/04";"2014/05/04";"";"PM10";"PM10";"ug/m3";"14.7831790269492";"A";"DATA_VALIDATE_ENV";
"PES02t";"2014/05/05";"2014/05/05";"";"PM10";"PM10";"ug/m3";"35.7272500009436";"A";"DATA_VALIDATE_ENV";
"PES02t";"2014/05/06";"2014/05/06";"";"PM10";"PM10";"ug/m3";"25.5579375840133";"A";"DATA_VALIDATE_ENV";
"PES02t";"2014/05/07";"2014/05/07";"";"PM10";"PM10";"ug/m3";"6.79309692915611";"A";"DATA_VALIDATE_ENV";
"PES02t";"2014/05/08";"2014/05/08";"";"PM10";"PM10";"ug/m3";"10.7565138920798";"A";"DATA_VALIDATE_ENV";
"PES02t";"2014/05/09";"2014/05/09";"";"PM10";"PM10";"ug/m3";"12.4524568616209";"A";"DATA_VALIDATE_ENV";
"PES02t";"2014/05/10";"2014/05/10";"";"PM10";"PM10";"ug/m3";"7.99927200311847";"A";"DATA_VALIDATE_ENV";
"PES02t";"2014/05/11";"2014/05/11";"";"PM10";"PM10";"ug/m3";"8.48903989869714";"A";"DATA_VALIDATE_ENV";
"PES02t";"2014/05/12";"2014/05/12";"";"PM10";"PM10";"ug/m3";"9.66805069368287";"A";"DATA_VALIDATE_ENV";
"PES02t";"2014/05/13";"2014/05/13";"";"PM10";"PM10";"ug/m3";"10.1830006337572";"A";"DATA_VALIDATE_ENV";
"PES02t";"2014/05/14";"2014/05/14";"";"PM10";"PM10";"ug/m3";"17.2137738398582";"A";"DATA_VALIDATE_ENV";
"PES02t";"2014/05/15";"2014/05/15";"";"PM10";"PM10";"ug/m3";"31.6251671381272";"A";"DATA_VALIDATE_ENV";
"PES02t";"2014/05/16";"2014/05/16";"";"PM10";"PM10";"ug/m3";"34.748026976172";"A";"DATA_VALIDATE_ENV";
"PES02t";"2014/05/17";"2014/05/17";"";"PM10";"PM10";"ug/m3";"20.4932853974075";"A";"DATA_VALIDATE_ENV";
"PES02t";"2014/05/18";"2014/05/18";"";"PM10";"PM10";"ug/m3";"17.1199857129279";"A";"DATA_VALIDATE_ENV";
"PES02t";"2014/05/19";"2014/05/19";"";"PM10";"PM10";"ug/m3";"27.7435133034664";"A";"DATA_VALIDATE_ENV";
"PES02t";"2014/05/20";"2014/05/20";"";"PM10";"PM10";"ug/m3";"23.761986821225";"A";"DATA_VALIDATE_ENV";
"PES02t";"2014/05/21";"2014/05/21";"";"PM10";"PM10";"ug/m3";"31.1206995165344";"A";"DATA_VALIDATE_ENV";
"PES02t";"2014/05/22";"2014/05/22";"";"PM10";"PM10";"ug/m3";"18.2658828539531";"A";"DATA_VALIDATE_ENV";
"PES02t";"2014/05/23";"2014/05/23";"";"PM10";"PM10";"ug/m3";"22.8006956950519";"A";"DATA_VALIDATE_ENV";
"PES02t";"2014/05/24";"2014/05/24";"";"PM10";"PM10";"ug/m3";"9.07841015052345";"A";"DATA_VALIDATE_ENV";
"PES02t";"2014/05/25";"2014/05/25";"";"PM10";"PM10";"ug/m3";"12.2890657507614";"A";"DATA_VALIDATE_ENV";
"PES02t";"2014/05/26";"2014/05/26";"";"PM10";"PM10";"ug/m3";"18.6614478719723";"A";"DATA_VALIDATE_ENV";
"PES02t";"2014/05/27";"2014/05/27";"";"PM10";"PM10";"ug/m3";"21.1319170044875";"A";"DATA_VALIDATE_ENV";
"PFO01t";"2014/11/07";"2014/11/07";"";"PM10";"PM10";"ug/m3";"15.3825583883262";"A";"DATA_VALIDATE_ENV";
"PFO01t";"2014/11/08";"2014/11/08";"";"PM10";"PM10";"ug/m3";"16.497501807141";"A";"DATA_VALIDATE_ENV";
"PFO01t";"2014/11/09";"2014/11/09";"";"PM10";"PM10";"ug/m3";"17.1594452819049";"A";"DATA_VALIDATE_ENV";
"PFO01t";"2014/11/10";"2014/11/10";"";"PM10";"PM10";"ug/m3";"10.0380156322973";"A";"DATA_VALIDATE_ENV";
"PFO01t";"2014/11/11";"2014/11/11";"";"PM10";"PM10";"ug/m3";"16.615348828373";"A";"DATA_VALIDATE_ENV";
"PFO01t";"2014/11/12";"2014/11/12";"";"PM10";"PM10";"ug/m3";"22.1296974606292";"A";"DATA_VALIDATE_ENV";
"PFO01t";"2014/11/13";"2014/11/13";"";"PM10";"PM10";"ug/m3";"19.3270466277069";"A";"DATA_VALIDATE_ENV";
"PFO01t";"2014/11/14";"2014/11/14";"";"PM10";"PM10";"ug/m3";"22.2383545765357";"A";"DATA_VALIDATE_ENV";
"PFO01t";"2014/11/15";"2014/11/15";"";"PM10";"PM10";"ug/m3";"12.5339496985508";"A";"DATA_VALIDATE_ENV";
"PFO01t";"2014/11/16";"2014/11/16";"";"PM10";"PM10";"ug/m3";"8.02657142776165";"A";"DATA_VALIDATE_ENV";
"PFO01t";"2014/11/17";"2014/11/17";"";"PM10";"PM10";"ug/m3";"8.55100729952353";"A";"DATA_VALIDATE_ENV";
"PFO01t";"2014/11/18";"2014/11/18";"";"PM10";"PM10";"ug/m3";"22.9869463498237";"A";"DATA_VALIDATE_ENV";
"PFO01t";"2014/11/19";"2014/11/19";"";"PM10";"PM10";"ug/m3";"32.5321297063469";"A";"DATA_VALIDATE_ENV";
"PFO01t";"2014/11/20";"2014/11/20";"";"PM10";"PM10";"ug/m3";"17.7851697180333";"A";"DATA_VALIDATE_ENV";
"PFO01t";"2014/11/21";"2014/11/21";"";"PM10";"PM10";"ug/m3";"24.2336296027572";"A";"DATA_VALIDATE_ENV";
"PFO01t";"2014/11/22";"2014/11/22";"";"PM10";"PM10";"ug/m3";"26.0475240341011";"A";"DATA_VALIDATE_ENV";
"PFO01t";"2014/11/23";"2014/11/23";"";"PM10";"PM10";"ug/m3";"22.98204244513";"A";"DATA_VALIDATE_ENV";
"PFO01t";"2014/11/24";"2014/11/24";"";"PM10";"PM10";"ug/m3";"15.9985488844548";"A";"DATA_VALIDATE_ENV";
"PFO01t";"2014/11/26";"2014/11/26";"";"PM10";"PM10";"ug/m3";"35.7984411818018";"A";"DATA_VALIDATE_ENV";
"PFO01t";"2014/11/27";"2014/11/27";"";"PM10";"PM10";"ug/m3";"22.8732087792488";"A";"DATA_VALIDATE_ENV";
"PFO01t";"2014/11/28";"2014/11/28";"";"PM10";"PM10";"ug/m3";"26.6098313078183";"A";"DATA_VALIDATE_ENV";
"PFO01t";"2014/11/29";"2014/11/29";"";"PM10";"PM10";"ug/m3";"20.986758570651";"A";"DATA_VALIDATE_ENV";
"PFO01t";"2014/11/30";"2014/11/30";"";"PM10";"PM10";"ug/m3";"15.215814290896";"A";"DATA_VALIDATE_ENV";
"PFO01t";"2014/12/01";"2014/12/01";"";"PM10";"PM10";"ug/m3";"15.690186831126";"A";"DATA_VALIDATE_ENV";
"PFO01t";"2014/12/02";"2014/12/02";"";"PM10";"PM10";"ug/m3";"17.7398875385449";"A";"DATA_VALIDATE_ENV";
"PFO01t";"2014/12/03";"2014/12/03";"";"PM10";"PM10";"ug/m3";"23.7577076532464";"A";"DATA_VALIDATE_ENV";
"PFO01t";"2014/12/04";"2014/12/04";"";"PM10";"PM10";"ug/m3";"22.2927625612186";"A";"DATA_VALIDATE_ENV";
"PFO01t";"2014/12/05";"2014/12/05";"";"PM10";"PM10";"ug/m3";"24.0522401596226";"A";"DATA_VALIDATE_ENV";
"PFO01t";"2014/12/06";"2014/12/06";"";"PM10";"PM10";"ug/m3";"19.9074972655409";"A";"DATA_VALIDATE_ENV";
"PFO01t";"2014/12/07";"2014/12/07";"";"PM10";"PM10";"ug/m3";"14.7652046532979";"A";"DATA_VALIDATE_ENV";
"PFO01t";"2014/12/08";"2014/12/08";"";"PM10";"PM10";"ug/m3";"12.9328997062076";"A";"DATA_VALIDATE_ENV";
"PFO01t";"2014/12/09";"2014/12/09";"";"PM10";"PM10";"ug/m3";"20.1886002519657";"A";"DATA_VALIDATE_ENV";
"PFO01t";"2014/12/10";"2014/12/10";"";"PM10";"PM10";"ug/m3";"11.8174073745005";"A";"DATA_VALIDATE_ENV";
"PFO01t";"2014/12/11";"2014/12/11";"";"PM10";"PM10";"ug/m3";"12.4705663809386";"A";"DATA_VALIDATE_ENV";
"PFO01t";"2014/12/12";"2014/12/12";"";"PM10";"PM10";"ug/m3";"7.11947371387534";"A";"DATA_VALIDATE_ENV";
"PFO01t";"2014/12/13";"2014/12/13";"";"PM10";"PM10";"ug/m3";"7.26462015975047";"A";"DATA_VALIDATE_ENV";
"PFO01t";"2014/12/14";"2014/12/14";"";"PM10";"PM10";"ug/m3";"8.11711902435042";"A";"DATA_VALIDATE_ENV";
"PFO01t";"2014/12/15";"2014/12/15";"";"PM10";"PM10";"ug/m3";"7.89823699006145";"A";"DATA_VALIDATE_ENV";
"PFO01t";"2014/12/16";"2014/12/16";"";"PM10";"PM10";"ug/m3";"8.84271610805955";"A";"DATA_VALIDATE_ENV";
"PFO01t";"2014/12/17";"2014/12/17";"";"PM10";"PM10";"ug/m3";"7.62735112877176";"A";"DATA_VALIDATE_ENV";
"PFO01t";"2014/12/18";"2014/12/18";"";"PM10";"PM10";"ug/m3";"4.00809888006078";"A";"DATA_VALIDATE_ENV";
"PFO01t";"2014/12/19";"2014/12/19";"";"PM10";"PM10";"ug/m3";"4.77956164322162";"A";"DATA_VALIDATE_ENV";
"PFO01t";"2014/12/20";"2014/12/20";"";"PM10";"PM10";"ug/m3";"9.61184350312253";"A";"DATA_VALIDATE_ENV";
"PFO01t";"2014/12/21";"2014/12/21";"";"PM10";"PM10";"ug/m3";"9.40505722657579";"A";"DATA_VALIDATE_ENV";
"PFO01t";"2014/12/22";"2014/12/22";"";"PM10";"PM10";"ug/m3";"5.09701881394852";"A";"DATA_VALIDATE_ENV";
"PFO01t";"2014/12/23";"2014/12/23";"";"PM10";"PM10";"ug/m3";"3.50094849198824";"A";"DATA_VALIDATE_ENV";
"PFO01t";"2014/12/24";"2014/12/24";"";"PM10";"PM10";"ug/m3";"5.48704920761299";"A";"DATA_VALIDATE_ENV";
"PFO01t";"2014/12/25";"2014/12/25";"";"PM10";"PM10";"ug/m3";"8.50714941801489";"A";"DATA_VALIDATE_ENV";
"PFO01t";"2014/12/26";"2014/12/26";"";"PM10";"PM10";"ug/m3";"10.892335286963";"A";"DATA_VALIDATE_ENV";
"PFO01t";"2014/12/27";"2014/12/27";"";"PM10";"PM10";"ug/m3";"1.85000902940849";"A";"DATA_VALIDATE_ENV";
"PFO01t";"2014/12/28";"2014/12/28";"";"PM10";"PM10";"ug/m3";"8.07943446159709";"A";"DATA_VALIDATE_ENV";
"PFO01t";"2014/12/29";"2014/12/29";"";"PM10";"PM10";"ug/m3";"21.5581664367875";"A";"DATA_VALIDATE_ENV";
"PFO01t";"2014/12/30";"2014/12/30";"";"PM10";"PM10";"ug/m3";"24.9228880968929";"A";"DATA_VALIDATE_ENV";
"PFO01t";"2014/12/31";"2014/12/31";"";"PM10";"PM10";"ug/m3";"39.8712807649454";"A";"DATA_VALIDATE_ENV";
"PLC01p";"2014/01/01";"2014/01/01";"";"PM10";"PM10";"ug/m3";"14.1392099258365";"A";"DATA_VALIDATE_ENV";
"PLC01p";"2014/01/02";"2014/01/02";"";"PM10";"PM10";"ug/m3";"14.9917087904364";"A";"DATA_VALIDATE_ENV";
"PLC01p";"2014/01/03";"2014/01/03";"";"PM10";"PM10";"ug/m3";"20.4336193454216";"A";"DATA_VALIDATE_ENV";
"PLC01p";"2014/01/04";"2014/01/04";"";"PM10";"PM10";"ug/m3";"18.9279614743835";"A";"DATA_VALIDATE_ENV";
"PLC01p";"2014/01/05";"2014/01/05";"";"PM10";"PM10";"ug/m3";"13.9643662123737";"A";"DATA_VALIDATE_ENV";
"PLC01p";"2014/01/06";"2014/01/06";"";"PM10";"PM10";"ug/m3";"17.930451309575";"A";"DATA_VALIDATE_ENV";
"PLC01p";"2014/01/07";"2014/01/07";"";"PM10";"PM10";"ug/m3";"15.6539225565334";"A";"DATA_VALIDATE_ENV";
"PSC01t";"2014/01/01";"2014/01/01";"";"PM10";"PM10";"ug/m3";"10.8360411855333";"A";"DATA_VALIDATE_ENV";
"PSC01t";"2014/01/02";"2014/01/02";"";"PM10";"PM10";"ug/m3";"10.8361763066903";"A";"DATA_VALIDATE_ENV";
"PSC01t";"2014/01/03";"2014/01/03";"";"PM10";"PM10";"ug/m3";"24.6644755139661";"A";"DATA_VALIDATE_ENV";
"PSC01t";"2014/01/04";"2014/01/04";"";"PM10";"PM10";"ug/m3";"14.0213629046045";"A";"DATA_VALIDATE_ENV";
"PSC01t";"2014/01/05";"2014/01/05";"";"PM10";"PM10";"ug/m3";"10.5567685969183";"A";"DATA_VALIDATE_ENV";
"PSC01t";"2014/01/06";"2014/01/06";"";"PM10";"PM10";"ug/m3";"9.41226955423504";"A";"DATA_VALIDATE_ENV";
"PSC01t";"2014/01/07";"2014/01/07";"";"PM10";"PM10";"ug/m3";"8.27887328932758";"A";"DATA_VALIDATE_ENV";
"PSC01t";"2014/01/08";"2014/01/08";"";"PM10";"PM10";"ug/m3";"15.5694704363646";"A";"DATA_VALIDATE_ENV";
"PSC01t";"2014/01/09";"2014/01/09";"";"PM10";"PM10";"ug/m3";"11.6248785000934";"A";"DATA_VALIDATE_ENV";
"PSC01t";"2014/01/10";"2014/01/10";"";"PM10";"PM10";"ug/m3";"13.676741454901";"A";"DATA_VALIDATE_ENV";
"PSC01t";"2014/01/11";"2014/01/11";"";"PM10";"PM10";"ug/m3";"19.1693683011315";"A";"DATA_VALIDATE_ENV";
"PSC01t";"2014/01/12";"2014/01/12";"";"PM10";"PM10";"ug/m3";"16.0318550356151";"A";"DATA_VALIDATE_ENV";
"PSC01t";"2014/01/13";"2014/01/13";"";"PM10";"PM10";"ug/m3";"17.8182918522987";"A";"DATA_VALIDATE_ENV";
"PSC01t";"2014/01/14";"2014/01/14";"";"PM10";"PM10";"ug/m3";"11.3981451986491";"A";"DATA_VALIDATE_ENV";
"PSC01t";"2014/01/15";"2014/01/15";"";"PM10";"PM10";"ug/m3";"10.1397090699438";"A";"DATA_VALIDATE_ENV";
"PSC01t";"2014/01/16";"2014/01/16";"";"PM10";"PM10";"ug/m3";"9.94009892044884";"A";"DATA_VALIDATE_ENV";
"PSC01t";"2014/01/17";"2014/01/17";"";"PM10";"PM10";"ug/m3";"11.1915477927056";"A";"DATA_VALIDATE_ENV";
"PSC01t";"2014/01/18";"2014/01/18";"";"PM10";"PM10";"ug/m3";"18.9733704183445";"A";"DATA_VALIDATE_ENV";
"PSC01t";"2014/01/19";"2014/01/19";"";"PM10";"PM10";"ug/m3";"26.9270983318354";"A";"DATA_VALIDATE_ENV";
"PSC01t";"2014/01/20";"2014/01/20";"";"PM10";"PM10";"ug/m3";"12.2211137254565";"A";"DATA_VALIDATE_ENV";
"PSC01t";"2014/01/21";"2014/01/21";"";"PM10";"PM10";"ug/m3";"14.6472224863994";"A";"DATA_VALIDATE_ENV";
"PSC01t";"2014/01/22";"2014/01/22";"";"PM10";"PM10";"ug/m3";"18.307835804106";"A";"DATA_VALIDATE_ENV";
"PSC01t";"2014/01/23";"2014/01/23";"";"PM10";"PM10";"ug/m3";"12.1145575730577";"A";"DATA_VALIDATE_ENV";
"PSC01t";"2014/01/24";"2014/01/24";"";"PM10";"PM10";"ug/m3";"18.891742435748";"A";"DATA_VALIDATE_ENV";
"PSC01t";"2014/01/25";"2014/01/25";"";"PM10";"PM10";"ug/m3";"21.4946479735088";"A";"DATA_VALIDATE_ENV";
"PSC01t";"2014/01/26";"2014/01/26";"";"PM10";"PM10";"ug/m3";"8.93934574974524";"A";"DATA_VALIDATE_ENV";
"PSC01t";"2014/01/27";"2014/01/27";"";"PM10";"PM10";"ug/m3";"8.95893807250346";"A";"DATA_VALIDATE_ENV";
"PSC01t";"2014/01/28";"2014/01/28";"";"PM10";"PM10";"ug/m3";"9.18733755776308";"A";"DATA_VALIDATE_ENV";
"PSC02t";"2014/08/07";"2014/08/07";"";"PM10";"PM10";"ug/m3";"15.2828751308837";"A";"DATA_VALIDATE_ENV";
"PSC02t";"2014/08/08";"2014/08/08";"";"PM10";"PM10";"ug/m3";"11.6179323706721";"A";"DATA_VALIDATE_ENV";
"PSC02t";"2014/08/09";"2014/08/09";"";"PM10";"PM10";"ug/m3";"8.38778094186876";"A";"DATA_VALIDATE_ENV";
"PSC02t";"2014/08/10";"2014/08/10";"";"PM10";"PM10";"ug/m3";"9.61358699006306";"A";"DATA_VALIDATE_ENV";
"PSC02t";"2014/08/11";"2014/08/11";"";"PM10";"PM10";"ug/m3";"11.7721335762061";"A";"DATA_VALIDATE_ENV";
"PSC02t";"2014/08/12";"2014/08/12";"";"PM10";"PM10";"ug/m3";"8.22455458421399";"A";"DATA_VALIDATE_ENV";
"PSC02t";"2014/08/13";"2014/08/13";"";"PM10";"PM10";"ug/m3";"9.71332449197726";"A";"DATA_VALIDATE_ENV";
"PSC02t";"2014/08/14";"2014/08/14";"";"PM10";"PM10";"ug/m3";"8.88826019768704";"A";"DATA_VALIDATE_ENV";
"PSC02t";"2014/08/15";"2014/08/15";"";"PM10";"PM10";"ug/m3";"7.32800347736261";"A";"DATA_VALIDATE_ENV";
"PSC02t";"2014/08/16";"2014/08/16";"";"PM10";"PM10";"ug/m3";"12.089590746933";"A";"DATA_VALIDATE_ENV";
"PSC02t";"2014/08/17";"2014/08/17";"";"PM10";"PM10";"ug/m3";"7.63515609738444";"A";"DATA_VALIDATE_ENV";
"PSC02t";"2014/08/18";"2014/08/18";"";"PM10";"PM10";"ug/m3";"8.13522854366818";"A";"DATA_VALIDATE_ENV";
"PSC02t";"2014/08/19";"2014/08/19";"";"PM10";"PM10";"ug/m3";"13.5859235669791";"A";"DATA_VALIDATE_ENV";
"PSC02t";"2014/08/21";"2014/08/21";"";"PM10";"PM10";"ug/m3";"14.7287153233293";"A";"DATA_VALIDATE_ENV";
"PSC02t";"2014/08/22";"2014/08/22";"";"PM10";"PM10";"ug/m3";"11.7722687218727";"A";"DATA_VALIDATE_ENV";
"PSC02t";"2014/08/23";"2014/08/23";"";"PM10";"PM10";"ug/m3";"8.63418634457227";"A";"DATA_VALIDATE_ENV";
"PSC02t";"2014/08/24";"2014/08/24";"";"PM10";"PM10";"ug/m3";"10.0654452271681";"A";"DATA_VALIDATE_ENV";
"PSC02t";"2014/08/25";"2014/08/25";"";"PM10";"PM10";"ug/m3";"9.30518457899504";"A";"DATA_VALIDATE_ENV";
"PSC02t";"2014/08/26";"2014/08/26";"";"PM10";"PM10";"ug/m3";"5.703734279241";"A";"DATA_VALIDATE_ENV";
"PSC02t";"2014/08/27";"2014/08/27";"";"PM10";"PM10";"ug/m3";"7.825541807596";"A";"DATA_VALIDATE_ENV";
"PSC02t";"2014/08/28";"2014/08/28";"";"PM10";"PM10";"ug/m3";"8.93353399598142";"A";"DATA_VALIDATE_ENV";
"PSC02t";"2014/08/29";"2014/08/29";"";"PM10";"PM10";"ug/m3";"13.6857962145599";"A";"DATA_VALIDATE_ENV";
"PSC02t";"2014/08/30";"2014/08/30";"";"PM10";"PM10";"ug/m3";"14.9283254728243";"A";"DATA_VALIDATE_ENV";
"PSC02t";"2014/08/31";"2014/08/31";"";"PM10";"PM10";"ug/m3";"15.0100886010873";"A";"DATA_VALIDATE_ENV";
"PSC02t";"2014/09/01";"2014/09/01";"";"PM10";"PM10";"ug/m3";"15.372684424442";"A";"DATA_VALIDATE_ENV";
"PSC02t";"2014/09/02";"2014/09/02";"";"PM10";"PM10";"ug/m3";"19.4358388892799";"A";"DATA_VALIDATE_ENV";
"PSC02t";"2014/09/03";"2014/09/03";"";"PM10";"PM10";"ug/m3";"8.93177871994666";"A";"DATA_VALIDATE_ENV";
"PSC02t";"2014/09/04";"2014/09/04";"";"PM10";"PM10";"ug/m3";"29.6700387749933";"A";"DATA_VALIDATE_ENV";
"PSC02t";"2014/09/05";"2014/09/05";"";"PM10";"PM10";"ug/m3";"21.4582937892068";"A";"DATA_VALIDATE_ENV";
"PSC02t";"2014/09/06";"2014/09/06";"";"PM10";"PM10";"ug/m3";"23.7075231176051";"A";"DATA_VALIDATE_ENV";
"PSC02t";"2014/09/07";"2014/09/07";"";"PM10";"PM10";"ug/m3";"34.5909387905758";"A";"DATA_VALIDATE_ENV";
"PSC02t";"2014/09/08";"2014/09/08";"";"PM10";"PM10";"ug/m3";"27.4714650767005";"A";"DATA_VALIDATE_ENV";
"PSC02t";"2014/09/09";"2014/09/09";"";"PM10";"PM10";"ug/m3";"31.5074552625618";"A";"DATA_VALIDATE_ENV";
"PSC02t";"2014/09/10";"2014/09/10";"";"PM10";"PM10";"ug/m3";"25.729978017532";"A";"DATA_VALIDATE_ENV";
"PSC02t";"2014/09/11";"2014/09/11";"";"PM10";"PM10";"ug/m3";"25.4669845504249";"A";"DATA_VALIDATE_ENV";
"PSC02t";"2014/09/12";"2014/09/12";"";"PM10";"PM10";"ug/m3";"19.2419283624399";"A";"DATA_VALIDATE_ENV";
"PSC02t";"2014/09/13";"2014/09/13";"";"PM10";"PM10";"ug/m3";"22.5334797469351";"A";"DATA_VALIDATE_ENV";
"PSC02t";"2014/09/14";"2014/09/14";"";"PM10";"PM10";"ug/m3";"16.306946417305";"A";"DATA_VALIDATE_ENV";
"PSC02t";"2014/09/15";"2014/09/15";"";"PM10";"PM10";"ug/m3";"18.0481631851404";"A";"DATA_VALIDATE_ENV";
"PSC02t";"2014/09/16";"2014/09/16";"";"PM10";"PM10";"ug/m3";"24.4331202013143";"A";"DATA_VALIDATE_ENV";
"PSC02t";"2014/09/17";"2014/09/17";"";"PM10";"PM10";"ug/m3";"27.3715924291197";"A";"DATA_VALIDATE_ENV";
"PSC02t";"2014/09/18";"2014/09/18";"";"PM10";"PM10";"ug/m3";"17.6401584178247";"A";"DATA_VALIDATE_ENV";